KOREASAT 5 (MUGUNGWHA 5) 1 29349U 06034A 21060.98642689 -.00000366 00000-0 00000+0 0 9996 2 29349 0.0156 212.9638 0001188 199.3694 215.8197 1.00270688 53240 BLOCK DM-SL R/B 1 29350U 06034B 21060.71651885 -.00000050 00000-0 00000-0 0 9998 2 29350 0.9540 38.3272 6379585 21.7539 234.3362 2.12151151112583